EHI
0 0 0 0 0 0 0 0 0 0 0 0 0 0 0 0 0 0 0 0 0 0 0 0 0 0 0 0 0 0 0 0 0 0 0 0 0 0 0 0 0 0 0
0 0 0 0 0 0 0 0 0 0 0 0 0 0 0 0 0 0 0 0 0 0 0 0 0 0 0 0 0 0 0 0 0 0 0 0 0 0 0 0 0 0 0
0 0 0 0 0 0 0 0 0 0 0 0 0 0 0 0 0 0 0 0 0 0 0 0 0 0 0 0 0 0 0 0 0 0 0 0 0 0 0 0 0 0 0
0 0 0 0 0 0 0 0 0 0 0 0 0 0 0 0 0 0 0 0 0 0 0 0 0 0 0 0 0 0 0 0 0 0 0 0 0 0 0 0 0 0 0
0 0 0 0 0 0 0 0 0 0 0 0 0 0 0 0 0 0 0 0 0 0 0 0 0 0 0 0 0 0 0 0 0 0 0 0 0 0 0 0 0 0 0
0 0 0 0 0 0 0 0 0 0 0 0 0 0 0 0 0 0 0 0 0 0 0 0 0 0 0 0 0 0 0 0 0 0 0 0 0 0 0 0 0 0 0
0 0 0 0 0 0 0 0 0 0 0 0 0 0 0 0 0 0 0 0 0 0 0 0 0 0 0 0 0 0 0 0 0 0 0 0 0 0 0 0 0 0 0
0 0 0 0 0 0 0 0 0 0 0 0 0 0 0 0 0 0 0 0 0 0 0 0 0 0 0 0 0 0 0 0 0 0 0 0 0 0 0 0 0 0 0
0 0 0 0 0 0 0 0 0 0 0 0 0 0 0 0 0 0 0 0 0 0 0 0 0 0 0 0 0 0 0 0 0 0 0 0 0 0 0 0 0 0 0
0 0 0 0 0 0 0 0 0 0 0 0 0 0 0 0 0 0 0 0 0 0 0 0 0 0 0 0 0 0 0 0 0 0 0 0 0 0 0 0 0 0 0
0 0 0 0 0 0 0 0 0 0 0 0 0 0 0 0 0 0 0 0 0 0 0 0 0 0 0 0 0 0 0 0 0 0 0 0 0 0 0 0 0 0 0
0 0 0 0 0 0 0 0 0 0 0 0 0 0 0 0 0 0 0 0 0 0 0 0 0 0 0 0 0 0 0 0 0 0 0 0 0 0 0 0 0 0 0
0 0 0 0 0 0 0 0 0 0 0 0 0 0 0 0 0 0 0 0 0 0 0 0 0 0 0 0 0 0 0 0 0 0 0 0 0 0 0 0 0 0 0
0 0 0 0 0 0 0 0 0 0 0 0 0 0 0 0 0 0 0 0 0 0 0 0 0 0 0 0 0 0 0 0 0 0 0 0 0 0 0 0 0 0 0
0 0 0 0 0 0 0 0 0 0 0 0 0 0 0 0 0 0 0 0 0 0 0 0 0 0 0 0 0 0 0 0 0 0 0 0 0 0 0 0 0 0 0
0 0 0 0 0 0 0 0 0 0 0 0 0 0 0 0 0 0 0 0 0 0 0 0 0 0 0 0 0 0 0 0 0 0 0 0 0 0 0 0 0 0 0
0 0 0 0 0 0 0 0 0 0 0 0 0 0 0 0 0 0 0 0 0 0 0 0 0 0 0 0 0 0 0 0 0 0 0 0 0 0 0 0 0 0 0
0 0 0 0 0 0 0 0 0 0 0 0 0 0 0 0 0 0 0 0 0 0 0 0 0 0 0 0 0 0 0 0 0 0 0 0 0 0 0 0 0 0 0
0 0 0 0 0 0 0 0 0 0 0 0 0 0 0 0 0 0 0 0 0 0 0 0 0 0 0 0 0 0 0 0 0 0 0 0 0 0 0 0 0 0 0
0 0 0 0 0 0 0 0 0 0 0 0 0 0 0 0 0 0 0 0 0 0 0 0 0 0 0 0 0 0 0 0 0 0 0 0 0 0 0 0 0 0 0
0 0 0 0 0 0 0 0 0 0 0 0 0 0 0 0 0 0 0 0 0 0 0 0 0 0 0 0 0 0 0 0 0 0 0 0 0 0 0 0 0 0 0
0 0 0 0 0 0 0 0 0 0 0 0 0 0 0 0 0 0 0 0 0 0 0 0 0 0 0 0 0 0 0 0 0 0 0 0 0 0 0 0 0 0 0
0 0 0 0 0 0 0 0 0 0 0 0 0 0 0 0 0 0 0 0 0 0 0 0 0 0 0 0 0 0 0 0 0 0 0 0 0 0 0 0 0 0 0
0 0 0 0 0 0 0 0 0 0 0 0 0 0 0 0 0 0 0 0 0 0 0 0 0 0 0 0 0 0 0 0 0 0 0 0 0 0 0 0 0 0 0
0 0 0 0 0 0 0 0 0 0 0 0 0 0 0 0 0 0 0 0 0 0 0 0 0 0 0 0 0 0 0 0 0 0 0 0 0 0 0 0 0 0 0
0 0 0 0 0 0 0 0 0 0 0 0 0 0 0 0 0 0 0 0 0 0 0 0 0 0 0 0 0 0 0 0 0 0 0 0 0 0 0 0 0 0 0
Wind_Speed
4 4 4 4 3 3 3 2 2 2 2 3 3 3 3 3 3 3 3 3 4 4 4 4 3 3 2 2 2 2 2 1 1 2 2 2 3 5 6 5 5 4 5
4 5 5 4 4 3 3 2 2 3 2 3 3 3 3 3 3 3 3 3 3 3 3 3 3 3 3 2 2 2 1 1 1 1 2 3 3 4 4 5 5 5 4
5 5 5 4 4 3 2 2 2 3 3 3 3 3 3 3 3 3 3 3 3 2 2 2 2 3 3 2 2 2 1 1 1 0 2 2 2 3 4 4 5 4 5
6 5 5 4 4 3 3 3 2 3 3 3 2 2 2 2 3 3 3 3 3 3 3 2 2 2 1 2 2 2 1 2 1 1 1 2 2 3 2 3 4 4 5
6 5 5 4 4 4 3 3 3 3 3 3 3 2 2 2 2 3 3 3 3 3 3 3 3 4 5 3 2 1 1 1 1 1 1 2 3 3 3 3 3 4 4
6 5 5 5 4 4 3 3 3 3 2 3 3 2 2 2 4 5 4 3 2 2 3 3 3 5 6 7 7 6 4 2 1 0 1 2 3 3 3 3 3 3 4
6 5 5 5 4 4 4 4 3 2 2 3 2 2 2 1 3 5 5 3 2 2 2 2 3 4 5 3 5 7 6 6 3 1 1 3 3 3 3 3 3 2 4
6 5 5 5 5 4 4 4 3 2 2 2 1 2 2 1 3 4 5 3 2 2 1 1 1 2 3 3 3 3 3 4 4 2 2 3 4 3 3 3 3 3 4
6 6 6 6 6 5 4 4 2 3 2 2 2 2 2 1 2 3 4 3 2 2 1 1 1 1 4 5 3 3 4 4 5 6 6 6 7 7 5 2 2 2 4
6 6 5 6 6 6 5 4 2 3 3 3 2 1 1 0 1 2 3 2 2 1 1 2 3 4 4 4 2 1 3 4 4 5 6 7 6 6 7 2 1 2 3
5 5 5 5 5 5 4 3 3 3 3 3 2 1 1 0 0 1 2 2 2 1 1 2 2 5 5 5 3 1 3 4 2 3 3 4 4 4 4 3 2 2 3
6 6 5 5 5 5 5 4 3 4 4 3 2 1 1 1 1 1 2 2 2 1 1 1 2 5 5 5 4 5 6 5 2 2 3 3 4 4 4 4 4 4 5
7 6 5 5 4 4 5 5 4 3 3 2 2 1 1 1 1 1 1 1 1 1 1 2 3 4 5 4 5 6 5 2 2 2 3 4 4 4 4 4 4 4 5
7 6 5 5 4 3 3 4 4 3 3 2 2 2 1 0 1 1 0 0 1 1 1 2 4 4 3 3 5 4 3 2 2 3 4 4 4 4 4 3 4 4 4
7 5 5 5 5 4 3 2 3 3 4 4 3 3 3 2 3 3 1 1 1 1 0 1 2 2 2 3 3 3 3 3 3 3 3 4 4 4 4 3 3 3 4
6 5 4 4 4 3 3 2 1 2 2 3 3 4 3 3 1 2 2 2 1 1 1 0 1 2 2 3 3 4 3 3 3 3 4 4 5 5 6 5 4 4 5
7 6 4 4 4 4 4 4 2 1 2 1 1 3 2 2 2 2 2 1 0 1 1 1 2 3 3 3 3 3 4 4 4 4 4 5 5 5 5 6 5 5 6
6 6 6 4 4 4 4 3 3 3 2 1 1 1 1 1 1 1 1 2 1 1 1 2 3 3 3 4 4 4 4 4 4 4 5 5 5 5 6 6 6 7 7
6 4 4 4 4 3 3 3 3 3 2 1 0 1 2 1 1 1 1 1 1 2 2 3 3 3 4 4 4 4 4 5 5 5 5 5 5 5 6 6 7 10 9
4 7 6 4 4 4 3 3 3 3 2 2 1 1 0 1 0 1 1 1 2 3 3 3 3 4 4 4 4 4 4 5 5 5 5 5 5 5 7 8 7 8 7
4 5 7 5 4 4 4 4 3 3 3 2 2 2 2 2 2 2 2 2 3 3 3 3 3 4 4 4 4 5 5 5 5 5 5 5 5 6 6 7 7 8 8
4 4 4 4 4 3 3 3 3 3 3 3 2 2 3 1 2 2 3 3 3 3 3 3 3 3 4 4 4 5 5 5 6 6 6 6 6 6 7 7 8 8 8
5 5 4 3 3 4 3 3 3 3 3 2 2 2 2 2 3 3 3 3 3 3 3 2 3 4 4 4 4 4 5 6 6 6 7 7 7 7 7 8 9 10 9
5 5 5 4 3 3 3 3 3 3 3 2 2 2 2 3 3 3 3 3 2 3 2 3 4 5 7 6 5 4 5 6 6 6 8 8 8 7 7 8 9 10 10
5 5 4 4 4 3 3 3 2 2 2 2 2 2 2 2 2 3 2 2 3 3 4 4 3 4 6 8 7 6 9 11 10 8 7 7 8 9 9 9 9 10 10
5 5 4 4 3 3 3 3 3 3 2 2 2 2 2 2 2 2 2 2 2 3 3 3 4 6 7 7 8 10 12 13 12 12 8 6 7 8 9 8 11 10 11
Wind_Direction
145 137 127 126 118 113 110 109 106 88 84 82 79 76 70 63 62 69 62 57 62 47 40 49 37 31 37 29 37 44 48 89 136 301 306 321 346 350 347 346 347 352 351
143 133 128 121 114 110 107 103 97 93 83 84 85 79 73 66 64 73 68 59 64 55 37 42 27 35 37 26 32 32 25 49 123 316 322 332 333 335 337 342 347 352 346
136 132 127 126 127 130 128 115 101 98 87 79 85 84 78 73 74 74 77 65 59 51 41 43 21 41 31 18 24 19 1 21 71 110 316 319 316 329 339 340 342 338 343
140 140 141 148 148 145 131 117 110 106 99 91 88 88 88 86 84 82 77 68 56 43 36 38 29 44 35 19 23 8 11 26 26 26 330 321 315 316 337 335 337 336 333
145 149 158 151 135 125 118 113 106 100 101 98 91 75 79 92 100 102 89 79 66 45 31 28 29 42 39 34 36 18 38 37 20 11 341 338 329 332 328 316 319 318 318
153 158 152 138 128 126 125 118 107 100 94 88 86 85 78 79 103 110 107 89 70 58 36 17 24 33 29 28 30 31 33 41 9 356 322 316 301 296 301 308 312 331 319
154 153 151 145 141 143 136 122 122 122 107 97 92 91 84 75 105 110 107 102 88 73 55 29 24 20 21 19 20 22 15 14 9 256 260 276 281 281 291 300 291 281 274
153 157 157 152 150 144 135 136 140 129 123 126 122 116 102 81 101 105 103 93 84 67 54 43 28 353 356 18 24 14 355 344 338 338 263 271 275 273 252 257 266 283 284
161 167 166 159 153 149 149 151 150 135 128 128 122 120 112 93 99 110 107 99 82 46 13 16 17 349 351 15 31 7 347 334 336 344 339 337 336 337 335 344 338 333 306
173 170 160 156 156 159 161 157 147 142 143 126 103 106 128 161 100 112 114 113 101 36 352 347 354 353 354 6 21 1 333 315 326 337 341 341 339 336 341 333 277 289 292
157 147 144 150 154 154 150 146 139 132 119 113 107 76 60 321 31 106 118 127 154 146 329 322 324 344 350 351 351 306 304 317 322 325 325 327 329 329 325 315 273 243 261
140 139 143 145 148 143 138 133 130 129 123 122 111 64 357 334 351 77 111 122 139 150 236 275 301 334 346 349 346 334 336 345 342 336 331 323 317 311 306 302 293 273 252
138 142 144 139 134 138 143 141 132 132 137 147 146 165 273 322 335 29 91 100 121 149 245 290 322 338 345 345 340 342 347 348 335 323 309 297 286 286 295 301 299 294 286
145 147 144 140 135 133 137 144 146 156 158 161 167 187 213 280 290 296 305 350 357 351 337 335 341 347 343 328 333 336 332 305 298 284 286 287 292 295 293 294 297 306 302
146 148 146 146 149 147 145 155 165 181 179 175 188 186 179 212 234 210 180 212 222 229 341 11 1 346 339 329 324 319 313 314 309 295 293 298 300 299 294 290 284 291 287
146 151 154 152 148 147 143 107 72 143 167 174 173 173 201 216 217 202 221 236 241 212 73 2 304 299 294 297 302 306 302 296 290 289 291 291 293 295 296 295 286 282 285
157 158 154 153 153 155 156 153 145 41 57 149 194 190 192 206 208 206 215 221 275 92 94 270 276 280 281 284 284 284 285 286 283 282 284 286 288 291 293 295 293 290 286
152 156 155 160 161 161 164 165 162 161 166 283 304 260 226 219 224 221 168 85 15 349 254 260 269 273 276 277 278 279 283 288 284 282 282 284 285 289 293 293 292 290 291
151 154 155 154 153 153 153 151 156 163 170 188 313 324 312 308 4 5 105 136 224 257 260 264 267 271 274 276 277 278 280 283 284 284 283 282 285 287 289 290 291 292 291
153 157 151 149 148 147 150 155 162 168 175 185 209 235 284 65 21 290 250 240 243 255 258 261 269 271 274 278 281 282 284 284 285 281 282 283 284 284 287 290 291 291 289
146 154 150 146 155 161 164 170 175 176 186 203 227 232 207 193 220 238 244 244 244 251 258 263 271 277 277 280 283 284 284 286 285 284 285 285 287 289 288 287 288 287 288
147 150 153 157 159 162 168 172 172 180 194 208 237 253 236 225 237 244 246 250 251 251 252 256 266 268 266 267 275 281 284 286 288 288 289 290 289 289 289 288 289 291 291
147 148 147 150 157 163 162 168 175 183 197 212 220 229 231 234 240 245 250 254 260 266 268 265 269 276 277 275 271 270 277 281 285 288 290 291 291 290 291 291 292 293 293
150 152 153 154 153 158 169 179 186 191 197 208 217 225 234 239 246 254 261 266 268 269 269 268 267 273 281 288 284 277 277 282 289 286 285 287 290 289 289 290 290 291 292
151 152 154 158 162 168 172 179 188 195 203 210 216 228 241 247 255 263 266 265 266 270 277 280 278 283 287 291 291 288 290 293 294 294 291 288 287 288 289 290 292 294 291
155 156 158 159 163 167 173 183 194 199 206 215 217 221 228 239 252 260 264 266 273 279 282 284 284 290 295 296 292 294 298 300 298 297 295 289 288 288 290 289 292 293 294